Regional Weather Roundup
Issued by NWS

Home | Current Version | Previous Version | Graphics & Text | Print | Product List | Glossary On
Versions: 1 2 3 4 5 6 7 8 9 10 11 12 13 14 15 16 17 18 19 20 21 22 23 24 25 26 27 28 29 30 31 32 33 34 35 36 37 38 39 40 41 42 43 44 45 46 47 48 49 50
000
ASUS43 KFSD 031702
RWRSD

WEATHER ROUNDUP FOR SOUTH DAKOTA
NATIONAL WEATHER SERVICE SIOUX FALLS SD
1200 PM CDT FRI JUL 03 2015

NOTE: "FAIR" INDICATES FEW OR NO CLOUDS BELOW 12,000 FEET WITH NO
SIGNIFICANT WEATHER AND/OR OBSTRUCTIONS TO VISIBILITY.


SDZ001>005-009-010-012>017-031800-
NORTHWEST AND NORTH CENTRAL SOUTH DAKOTA

CITY           SKY/WX    TMP DP  RH WIND       PRES   REMARKS
BUFFALO          N/A     80  58  46 S5        29.98F
FAITH            N/A     77  58  51 CALM      30.03F
MOBRIDGE       MOSUNNY   77  66  68 W6        29.98S HAZE
$$

SDZ012>016-024>037-041>051-057-063-072>074-031800-
SOUTHWEST AND SOUTH CENTRAL SOUTH DAKOTA

CITY           SKY/WX    TMP DP  RH WIND       PRES   REMARKS
RAPID CTY ARPT SUNNY     76  59  55 SE8       30.07F
PIERRE         SUNNY     75  66  73 W5        30.00S HAZE
CUSTER         PTSUNNY   71  51  49 SW6       30.18F HAZE
ELLSWORTH AFB  SUNNY     77  58  52 SE6       30.06F
PHILIP         SUNNY     77  63  61 E3        30.03F HAZE
PINE RIDGE     SUNNY     75  58  55 E5        30.09S
WINNER         FAIR      79  57  46 VRB3      30.03S
$$

SDZ004>011-016>023-039-040-031800-
NORTHEAST SOUTH DAKOTA

CITY           SKY/WX    TMP DP  RH WIND       PRES   REMARKS
ABERDEEN       MOSUNNY   77  64  64 VRB3      29.97F HAZE
WATERTOWN      MOSUNNY   75  65  70 VRB5      29.98F
BROOKINGS      MOSUNNY   72  63  73 W5        30.01F
SISSETON         N/A     78  66  66 N6        29.94S
$$

SDZ017-020-022-023-036>040-048>070-031800-
SOUTHEAST SOUTH DAKOTA

CITY           SKY/WX    TMP DP  RH WIND       PRES   REMARKS
SIOUX FALLS    SUNNY     71  60  68 VRB5      30.00F
HURON          SUNNY     73  66  78 SW5       29.98S
CHAMBERLAIN    SUNNY     74  67  76 CALM      30.02S
MITCHELL       CLOUDY    69  65  86 SW8       30.01S
YANKTON        PTSUNNY   70  61  73 CALM      30.00F
$$

ABBREVIATIONS USED IN REMARKS
   TC - TEMPERATURE IN CELSIUS
  WCI - WIND CHILL INDEX
   HX - HEAT INDEX
  VSB - VISIBILITY



USA.gov is the U.S. government's official web portal to all federal, state and local government web resources and services.